This demonstration page uses our WeatherBlox Daily Observations layout. Learn more.

Left ArrowRight Arrow

38.20091, -84.87328

Hourly Observations for July 9, 2017

Temp ( °F °C ) Dew Point ( °F °C ) Humidity (%) Winds ( mph kmh ) Pressure ( in mb ) Visibility ( mi km ) Precip ( " mm )
12:53 am 00:53 Clear 67 19.4 61 16.1 81 81 Calm 30.04 1017 10 16 0.00 0.00
1:53 am 01:53 Clear 66 18.9 61 16.1 84 84 NNW 3 6 30.04 1017 10 16 0.00 0.00
2:53 am 02:53 Mostly Clear 63 17.2 59 15 87 87 Calm 30.04 1017 10 16 0.00 0.00
3:53 am 03:53 Clear 63 17.2 59 15 87 87 NNW 5 7 30.04 1017 10 16 0.00 0.00
4:53 am 04:53 Clear 62 16.7 58 14.4 86 86 Calm 30.05 1018 10 16 0.00 0.00
5:53 am 05:53 Mostly Cloudy 61 16.1 57 13.9 87 87 Calm 30.06 1018 10 16 0.00 0.00
6:53 am 06:53 Partly Cloudy 61 16.1 57 13.9 87 87 Calm 30.08 1019 9 14 0.00 0.00
7:53 am 07:53 Sunny 66 18.9 60 15.6 81 81 Calm 30.09 1019 10 16 0.00 0.00
8:53 am 08:53 Sunny 71 21.7 60 15.6 68 68 ESE 3 6 30.10 1019 10 16 0.00 0.00
9:53 am 09:53 Sunny 75 23.9 57 13.9 54 54 ESE 6 9 30.10 1019 10 16 0.00 0.00
10:53 am 10:53 Sunny 78 25.6 53 11.7 42 42 SE 6 9 30.11 1020 10 16 0.00 0.00
11:53 am 11:53 Sunny 79 26.1 56 13.3 45 45 VRB 3 6 30.10 1019 10 16 0.00 0.00
12:53 pm 12:53 Sunny 80 26.7 57 13.9 45 45 SW 6 9 30.09 1019 10 16 0.00 0.00
1:53 pm 13:53 Partly Cloudy 80 26.7 57 13.9 45 45 Calm 30.09 1019 10 16 0.00 0.00
2:53 pm 14:53 Sunny 83 28.3 57 13.9 41 41 VRB 7 11 30.07 1018 10 16 0.00 0.00
3:53 pm 15:53 Sunny 83 28.3 58 14.4 43 43 W 7 11 30.06 1018 10 16 0.00 0.00
4:53 pm 16:53 Sunny 84 28.9 54 12.2 36 36 NW 5 7 30.05 1018 10 16 0.00 0.00
5:53 pm 17:53 Mostly Sunny 83 28.3 59 15 44 44 SSE 3 6 30.04 1017 10 16 0.00 0.00
6:53 pm 18:53 Sunny 83 28.3 60 15.6 46 46 Calm 30.02 1017 10 16 0.00 0.00
7:53 pm 19:53 Sunny 83 28.3 58 14.4 43 43 Calm 30.02 1017 10 16 0.00 0.00
8:53 pm 20:53 Sunny 74 23.3 64 17.8 71 71 Calm 30.02 1017 10 16 0.00 0.00
9:53 pm 21:53 Clear 71 21.7 63 17.2 76 76 Calm 30.02 1017 10 16 0.00 0.00
10:53 pm 22:53 Clear 71 21.7 63 17.2 76 76 Calm 30.03 1017 10 16 0.00 0.00
11:53 pm 23:53 Clear 70 21.1 63 17.2 79 79 Calm 30.04 1017 10 16 0.00 0.00

Powered by AerisWeather